This demonstration page uses our WeatherBlox Daily Observations layout. Learn more.

Left ArrowRight Arrow

41.55636, -103.73856

Hourly Observations for September 27, 2021

Temp ( °F °C ) Dew Point ( °F °C ) Humidity (%) Winds ( mph kmh ) Pressure ( in mb ) Visibility ( mi km ) Precip ( " mm )
12:58 am 00:58 Clear 62 16.4 27 -3 26 26 SW 3 6 29.85 1011 10 16 N/A
1:58 am 01:58 Clear 64 17.7 26 -3.4 24 24 SSW 6 9 29.83 1010 10 16 N/A
2:58 am 02:58 Clear 61 16.2 24 -4.2 25 25 SW 7 11 29.84 1010 10 16 N/A
3:58 am 03:58 Clear 59 14.9 25 -3.9 27 27 SW 9 15 29.84 1010 10 16 N/A
4:58 am 04:58 Clear 61 15.9 23 -4.8 24 24 S 3 6 29.84 1010 10 16 N/A
5:58 am 05:58 Clear 58 14.5 26 -3.6 29 29 SW 8 13 29.85 1011 10 16 N/A
6:58 am 06:58 Sunny 54 12.3 25 -4.1 32 32 SW 6 9 29.88 1012 10 16 N/A
7:58 am 07:58 Sunny 58 14.6 28 -2.4 31 31 SW 8 13 29.88 1012 10 16 N/A
8:58 am 08:58 Sunny 66 18.9 29 -1.8 25 25 W 3 6 29.90 1013 10 16 N/A
9:58 am 09:58 Sunny 77 25.1 26 -3.4 15 15 WSW 6 9 29.88 1012 10 16 N/A
10:58 am 10:58 Sunny 84 28.7 23 -5.2 10 10 WNW 10 17 29.86 1011 10 16 N/A
11:58 am 11:58 Sunny 86 30.2 22 -5.3 9 9 NNW 6 9 29.84 1011 10 16 N/A
12:58 pm 12:58 Sunny 88 30.9 23 -5.2 9 9 N N/A 29.82 1010 10 16 N/A
1:58 pm 13:58 Sunny 89 31.8 23 -5 9 9 WSW 6 9 29.80 1009 10 16 N/A
2:58 pm 14:58 Sunny 90 32.2 23 -5.2 8 8 SSW 8 13 29.78 1009 10 16 N/A
3:58 pm 15:58 Sunny 91 32.8 25 -4.1 9 9 S 13 20 29.76 1008 10 16 N/A
4:58 pm 16:58 Sunny 90 32.1 24 -4.3 9 9 S 16 26 29.77 1008 10 16 N/A
5:58 pm 17:58 Sunny 86 30 24 -4.6 10 10 S 14 22 29.77 1008 10 16 N/A
6:58 pm 18:58 Clear 77 25.2 23 -4.9 13 13 S 15 24 29.80 1009 10 16 N/A
7:58 pm 19:58 Clear 76 24.3 24 -4.3 15 15 S 17 28 29.80 1009 10 16 N/A
8:58 pm 20:58 Clear 73 22.9 26 -3.4 17 17 S 20 31 29.79 1009 10 16 N/A
9:58 pm 21:58 Clear 71 21.9 27 -3 19 19 S 21 33 29.77 1008 10 16 N/A
10:58 pm 22:58 Clear 69 20.6 27 -2.6 21 21 S 22 35 29.76 1008 10 16 N/A
11:58 pm 23:58 Clear 69 20.5 29 -1.9 22 22 S 23 37 29.75 1007 10 16 N/A

Powered by AerisWeather